Regional Weather Roundup
Issued by NWS

Home | Current Version | Previous Version | Graphics & Text | Print | Product List | Glossary Off
Versions: 1 2 3 4 5 6 7 8 9 10 11 12 13 14 15 16 17 18 19 20 21 22 23 24 25 26 27 28 29 30 31 32 33 34 35 36 37 38 39 40 41 42 43 44 45 46 47 48 49 50

000
ASUS43 KFSD 011502
RWRSD

WEATHER ROUNDUP FOR SOUTH DAKOTA
NATIONAL WEATHER SERVICE SIOUX FALLS SD
900 AM CST SUN MAR 01 2015

NOTE: "FAIR" INDICATES FEW OR NO CLOUDS BELOW 12,000 FEET WITH NO
SIGNIFICANT WEATHER AND/OR OBSTRUCTIONS TO VISIBILITY.


SDZ001>005-009-010-012>017-011600-
NORTHWEST AND NORTH CENTRAL SOUTH DAKOTA

CITY           SKY/WX    TMP DP  RH WIND       PRES   REMARKS
BUFFALO          N/A     15  10  80 W14       30.14R WCI   0
FAITH            N/A     17   7  64 W15       30.24R WCI   2
MOBRIDGE       LGT SNOW  15  10  80 W8        30.21R WCI   4
$$

SDZ012>016-024>037-041>051-057-063-072>074-011600-
SOUTHWEST AND SOUTH CENTRAL SOUTH DAKOTA

CITY           SKY/WX    TMP DP  RH WIND       PRES   REMARKS
RAPID CTY ARPT SUNNY     14   9  80 N3        30.24R
PIERRE         PTSUNNY   18   9  68 W13       30.28R WCI   5
CUSTER         SUNNY     12   5  73 W7        30.10R WCI   1
ELLSWORTH AFB  SUNNY     15   7  71 CALM      30.23R
PHILIP         SUNNY     18   9  68 W8        30.30R WCI   8
PINE RIDGE     CLOUDY    19  13  77 W6        30.27R WCI  11
WINNER         FAIR      24  12  60 W13       30.31R WCI  12
$$

SDZ004>011-016>023-039-040-011600-
NORTHEAST SOUTH DAKOTA

CITY           SKY/WX    TMP DP  RH WIND       PRES   REMARKS
ABERDEEN       MOSUNNY   12   5  73 SW10      30.26R WCI  -1
WATERTOWN      MOSUNNY   11   4  73 SW12      30.23R WCI  -3
SISSETON         N/A     16   6  65 W18G26    30.23R WCI   0
$$

SDZ017-020-022-023-036>040-048>070-011600-
SOUTHEAST SOUTH DAKOTA

CITY           SKY/WX    TMP DP  RH WIND       PRES   REMARKS
SIOUX FALLS    PTSUNNY   16  10  77 W6        30.31R WCI   7
HURON          MOSUNNY   15   9  76 W7        30.31R WCI   5
MITCHELL       PTSUNNY   22  13  68 W12       30.33R WCI  10
YANKTON        MOSUNNY   21  14  73 SW10      30.36S WCI  10
$$

ABBREVIATIONS USED IN REMARKS
   TC - TEMPERATURE IN CELSIUS
  WCI - WIND CHILL INDEX
   HX - HEAT INDEX
  VSB - VISIBILITY



USA.gov is the U.S. government's official web portal to all federal, state and local government web resources and services.